User: anonymous   Login
Location: Theydon Bois
(51.6750°N, 0.1050°E)
Time: 00:55:19
(UTC+01:00)
Language:

Cosmos 1733 - Orbit

View from above orbital plane
View from above orbital plane
View from above satellite
View from above satellite

Ground track
Ground track

The orbit data is extracted from the following two-line orbital elements,

1 16611U 86018A   18174.61075446 +.00000861 +00000-0 +42127-4 0  9997
2 16611 082.4894 031.0112 0013733 128.7993 231.4469 15.16764204765010
Epoch (UTC): 23 June 2018 14:39:29
Eccentricity: 0.0013733
inclination: 82.4894°
perigee height: 506 km
apogee height: 525 km
right ascension of ascending node: 31.0112°
argument of perigee: 128.7993°
revolutions per day: 15.16764204
mean anomaly at epoch: 231.4469°
orbit number at epoch: 76501

The dashed part of the orbit path shows where the satellite is in the earth's shadow,  

DLR